Location: Darlington Observatory
(36.4817°N, 105.8156°W)
Time: 00:44:51
(UTC-06:00)

NOSS 3-3 (A) - Visible Passes

Search period start: 26 August 2016 00:00
Search period end: 05 September 2016 00:00
Orbit: 928 x 1285 km, 63.4° (Epoch: 25 August)

Date Brightness Start Highest point End Pass type
(mag) Time Alt. Az. Time Alt. Az. Time Alt. Az.
26 Aug 7.0 01:02:59 10° N 01:05:29 12° NNE 01:08:01 10° NE visible
26 Aug 5.4 02:51:25 10° NNW 02:58:30 44° NE 03:05:57 10° ESE visible
26 Aug 4.8 04:42:27 10° NW 04:49:29 42° WSW 04:56:51 10° S visible
26 Aug 6.7 20:25:44 10° W 20:30:06 19° NW 20:34:42 10° N visible
27 Aug 6.0 02:07:04 10° NNW 02:13:27 30° NE 02:20:09 10° ESE visible
27 Aug 4.4 03:57:25 10° NW 04:04:56 66° WSW 04:12:48 10° SSE visible
27 Aug 6.0 05:54:13 10° W 05:54:47 10° WSW 05:55:22 10° WSW visible
28 Aug 6.4 01:22:52 10° N 01:28:13 21° NE 01:33:12 12° E visible
28 Aug 4.4 03:12:40 10° NNW 03:20:15 83° ENE 03:20:21 83° ENE visible
28 Aug 5.9 05:05:28 10° WNW 05:19:15 - SSW 05:07:30 15° W visible
28 Aug 7.0 20:51:42 10° NW 20:52:51 10° NNW 20:54:00 10° NNW visible
29 Aug 6.7 00:38:57 10° N 00:42:49 15° NNE 00:46:48 10° ENE visible
29 Aug 5.0 02:28:04 10° NNW 02:34:25 52° NNE 02:34:25 52° NNE visible
29 Aug 5.9 04:19:37 10° NW 04:21:42 18° WNW 04:21:42 18° WNW visible
29 Aug 6.7 20:03:46 10° WNW 20:07:19 15° NNW 20:11:01 10° N visible
29 Aug 6.9 23:56:14 10° NNE 23:57:12 10° NNE 23:58:12 10° NNE visible
30 Aug 5.6 01:43:39 10° NNW 01:49:29 36° NNE 01:49:29 36° NNE visible
30 Aug 5.9 03:34:23 10° NW 03:36:49 22° NW 03:36:49 22° NW visible
31 Aug 6.0 00:59:20 10° NNW 01:05:00 26° NE 01:05:00 26° NE visible
31 Aug 5.8 02:49:29 10° NW 02:52:21 26° NW 02:52:21 26° NW visible
01 Sep 6.4 00:15:14 10° N 00:20:05 18° NE 00:20:45 18° NE visible
01 Sep 5.8 02:04:47 10° NNW 02:08:07 30° NNW 02:08:07 30° NNW visible
01 Sep 6.6 23:31:31 10° N 23:34:35 13° NNE 23:36:41 11° NE visible
02 Sep 5.9 01:20:16 10° NNW 01:24:04 30° N 01:24:04 30° N visible
03 Sep 6.0 00:35:53 10° NNW 00:40:07 27° NNE 00:40:07 27° NNE visible
03 Sep 6.4 02:26:23 10° NW 02:27:30 15° NW 02:27:30 15° NW visible
03 Sep 6.2 23:51:39 10° N 23:56:16 22° NNE 23:56:16 22° NNE visible
04 Sep 6.3 01:41:34 10° NNW 01:43:40 21° NNW 01:43:40 21° NNW visible
04 Sep 6.4 23:07:39 10° N 23:11:53 16° NE 23:12:29 16° NE visible
